This is the latest recevied weather packets stored in our database for station/object N1OTX. If no packets are shown the sender has not sent any weather packets the latest 10 day(s).
| Time | Temp. | Humidity | Pressure | Rain* | Wind** | Luminosity | Snow |
|---|---|---|---|---|---|---|---|
| 1777803370 | 6.11° C | 81% | 1006.9 hPa | 0 mm | - | 11 W/m² | - |
| 1777802729 | 6.11° C | 81% | 1007 hPa | 0 mm | - | 9 W/m² | - |
| 1777802131 | 6.11° C | 80% | 1007.1 hPa | 0 mm | - | 6 W/m² | - |
| 1777800930 | 6.11° C | 81% | 1007 hPa | 0 mm | - | 1 W/m² | - |
| 1777799430 | 6.67° C | 80% | 1007.3 hPa | 0 mm | - | 0 W/m² | - |
| 1777798529 | 6.67° C | 81% | 1007.4 hPa | 0 mm | - | 0 W/m² | - |
| 1777795529 | 7.22° C | 81% | 1008.3 hPa | 0 mm | - | 0 W/m² | - |
| 1777795229 | 7.22° C | 81% | 1008.2 hPa | 0 mm | - | 0 W/m² | - |
| 1777794629 | 7.22° C | 82% | 1008.2 hPa | 0 mm | - | 0 W/m² | - |
| 1777794329 | 7.22° C | 82% | 1008.1 hPa | 0 mm | - | 0 W/m² | - |
| 1777793729 | 7.22° C | 83% | 1008.2 hPa | 0 mm | - | 0 W/m² | - |
| 1777791030 | 7.22° C | 83% | 1008.7 hPa | 0 mm | - | 0 W/m² | - |
| 1777790129 | 7.78° C | 82% | 1009.1 hPa | 0 mm | - | 0 W/m² | - |
| 1777787730 | 7.78° C | 84% | 1009.4 hPa | 0 mm | - | 0 W/m² | - |
| 1777786830 | 8.33° C | 82% | 1009.3 hPa | 0 mm | - | 0 W/m² | - |
| 1777785029 | 8.33° C | 80% | 1009.7 hPa | 0 mm | - | 0 W/m² | - |
| 1777784729 | 8.33° C | 80% | 1009.7 hPa | 0 mm | - | 0 W/m² | - |
| 1777782950 | 8.89° C | 80% | 1010 hPa | 0 mm | - | 0 W/m² | - |
| 1777781429 | 8.89° C | 84% | 1010.4 hPa | 0 mm | - | 0 W/m² | - |
| 1777778130 | 9.44° C | 89% | 1010.4 hPa | 0 mm | - | 0 W/m² | - |
| 1777774230 | 9.44° C | 87% | 1010.6 hPa | 0 mm | - | 0 W/m² | - |
| 1777773050 | 9.44° C | 86% | 1010.8 hPa | 0 mm | - | 0 W/m² | - |
| 1777770330 | 10° C | 81% | 1010.7 hPa | 0 mm | - | 0 W/m² | - |
| 1777768829 | 10° C | 84% | 1010.5 hPa | 0 mm | - | 0 W/m² | - |
| 1777766730 | 10.56° C | 80% | 1010.3 hPa | 0 mm | - | 0 W/m² | - |
* Rain latest hour (hover to see other rain measurements)
** Current wind speed in m/s (hover to see current wind gust speed)